Home > Weather > Höxter > Past weeks

Flag for Germany Past Weather in Höxter, North Rhine-Westphalia, Germany — Yesterday and Last 2 Weeks

Now
90 °F

Passing clouds.


Feels Like: 86 °F
Forecast: 62 / 93 °F
Wind: 10 mph from Southeast

Location: Kassel / Calden

Current Time: Aug 25, 2016 at 7:08:20 PM

Latest Report: Aug 25, 2016 at 6:20 PM


Visibility: N/A

Pressure: 30.04 "Hg

Humidity: 22%

Dew Point: 46 °F

Location of HöxterLocation

Past Weather in Höxter — Graph

°F

Höxter Temperature Yesterday

Maximum temperature yesterday: 86 °F (at 2:50 PM)
Minimum temperature yesterday: 61 °F (at 7:20 AM)
Average temperature yesterday: 79 °F

High & Low Weather Summary for the Past Weeks

 TemperatureHumidityPressure
High90 °F (Aug 25, 4:50 PM)100% (Aug 12, 7:20 AM)30.36 "Hg (Aug 12, 7:20 AM)
Low45 °F (Aug 11, 7:20 AM)20% (Aug 25, 5:20 PM)29.80 "Hg (Aug 18, 3:50 PM)
Average68 °F62%30.11 "Hg
* Reported Aug 10 5:20 PM — Aug 25 5:50 PM, Höxter, Weather by CustomWeather, © 2016

Note: Actual official high and low records may vary slightly from our data, if they occured in-between our weather recording intervals... More about our weather records

Advertising

Höxter Weather History for the Previous 24 Hours

Scroll right to see more
 ConditionsComfort  
Time TempWeatherWind HumidityBarometerVisibility
5:50 PM
Thu, Aug 25
90 °FPassing clouds.10 mph22%30.04 "HgN/A
5:20 PM90 °FSunny.10 mph20%30.04 "Hg10 mi
4:50 PM90 °FSunny.10 mph26%30.07 "Hg10 mi
4:20 PM88 °FPassing clouds.10 mph27%30.07 "HgN/A
3:50 PM88 °FPassing clouds.9 mph27%30.07 "HgN/A
3:20 PM88 °FPassing clouds.9 mph31%30.09 "HgN/A
2:50 PM88 °FPassing clouds.10 mph33%30.09 "HgN/A
2:20 PM86 °FPassing clouds.12 mph33%30.09 "HgN/A
1:50 PM86 °FSunny.13 mph33%30.09 "Hg10 mi
1:20 PM84 °FSunny.14 mph37%30.12 "Hg10 mi
12:50 PM82 °FPassing clouds.13 mph42%30.12 "HgN/A
12:20 PM82 °FPassing clouds.10 mph45%30.12 "HgN/A
11:50 AM81 °FSunny.12 mph45%30.12 "Hg10 mi
11:20 AM79 °FSunny.9 mph51%30.12 "Hg10 mi
10:50 AM77 °FPassing clouds.9 mph54%30.15 "HgN/A
10:20 AM75 °FSunny.10 mph57%30.15 "Hg10 mi
9:50 AM73 °FSunny.10 mph57%30.15 "Hg10 mi
9:20 AM72 °FSunny.12 mph65%30.15 "Hg10 mi
8:50 AM72 °FSunny.9 mph65%30.15 "Hg10 mi
8:20 AM68 °FSunny.7 mph73%30.15 "Hg10 mi
7:50 AM64 °FSunny.5 mph83%30.15 "Hg10 mi
7:20 AM64 °FClear.5 mph83%30.15 "Hg10 mi
9:20 PM
Wed, Aug 24
73 °FSunny.1 mph61%30.18 "Hg10 mi
8:50 PM75 °FSunny.3 mph57%30.18 "Hg10 mi
8:20 PM81 °FSunny.3 mph48%30.18 "Hg10 mi
7:50 PM84 °FSunny.3 mph43%30.18 "Hg10 mi
7:20 PM84 °FSunny.7 mph43%30.18 "Hg10 mi
Weather by CustomWeather, © 2016

See weather overviewHow to use our weather pages